Location: Brahmalkunta
(17.2470°N, 80.6048°E)
Time: 06:02:08
(UTC+00:00)

Daily predictions for brighter satellites

Satellite Brightness Start Highest point End
(mag) Time Altitude Azimuth Time Altitude Azimuth Time Altitude Azimuth
IRS-1C 4.2 12:18:24 10° SSE 12:23:34 55° ENE 12:28:45 10° N
USA 307 2.3 12:27:10 10° SW 12:29:26 34° WNW 12:30:56 10° NNE
ARIANE 5 R/B 2.4 12:25:35 10° SSE 12:30:32 68° ENE 12:35:30 10° N
MOS 1 Rocket 3.5 12:27:24 10° SSE 12:31:40 45° ENE 12:36:10 10° N
Cosmos 1733 2.1 12:30:33 10° NNE 12:32:24 33° E 12:34:16 10° SSE
AQUARIUS 4.2 12:30:36 10° SSE 12:34:53 55° ENE 12:39:11 10° N
ATLAS 2AS CENTAUR R/B 4.0 12:29:03 10° NW 12:35:25 46° WSW 12:41:53 10° S
Cosmos 1743 2.9 12:34:34 10° NNE 12:37:33 34° E 12:40:30 10° SSE
COSMO-SKYMED 1 2.4 12:34:06 10° NNE 12:38:10 62° E 12:42:13 10° S
CZ-2D R/B 4.4 12:40:34 10° SE 12:44:03 26° ENE 12:47:35 10° NNE
Cosmos 2297 Rocket 3.6 12:41:26 10° NNE 12:44:48 16° ENE 12:48:09 10° ESE
Cosmos 2058 Rocket 4.4 12:41:50 10° SE 12:45:05 20° E 12:47:36 13° NE
Cosmos 990 Rocket 4.0 12:47:22 10° SSW 12:52:29 83° WNW 12:57:35 10° NNE
Cosmos 1758 Rocket 3.8 12:49:39 10° N 12:53:54 70° W 12:58:07 10° S
NATO 3D Rocket 3.5 12:50:27 10° W 12:55:07 72° SSW 13:00:33 10° ESE
Cosmos 1980 Rocket 2.4 12:51:17 10° S 12:56:43 48° ESE 13:01:43 12° NNE
ISS -2.3 12:54:05 10° NW 12:57:14 40° SW 13:00:23 10° SSE
Centaur D-1AR AC-39 2.8 12:54:47 10° SW 12:58:06 38° SSE 13:02:27 16° E
Meteor 2-20 4.4 12:55:47 10° S 13:01:51 65° E 13:07:55 10° NNE
Hubble Space Telescope 0.5 13:06:11 10° WSW 13:09:57 72° SSE 13:11:25 35° ENE
BREEZE-M DEB (TANK) 4.1 13:03:42 10° NNW 13:10:27 28° NNE 13:11:17 26° NE
Cosmos-2242 3.4 13:07:07 10° SSE 13:11:00 38° E 13:12:25 29° NE
Okean 1 4.2 13:11:15 10° SSE 13:13:40 27° ESE 13:13:40 27° ESE
Resurs 1-3 3.6 13:11:29 10° SSE 13:15:40 54° ENE 13:19:51 10° N
Sakura Rocket 3.1 13:12:27 10° W 13:16:12 48° NNW 13:17:19 34° NNE
IRAS Rocket 4.4 13:11:53 10° SE 13:17:08 46° ENE 13:22:21 10° N
SWIFT 2.3 13:16:45 10° W 13:20:03 52° SSW 13:21:09 34° SE
Meteor 2-20 Rocket 4.4 13:18:18 10° S 13:24:45 72° E 13:31:01 10° N
Okean 1-7 Rocket 3.6 13:20:50 10° N 13:25:11 80° W 13:29:32 10° S
Spot 4 Rocket 3.9 13:21:30 10° SSE 13:26:34 79° ENE 13:31:40 10° N
DELTA 2 R/B (1) 4.1 13:23:00 10° WNW 13:28:27 58° SW 13:33:52 10° SE
ARIANE 6 FM1 Upper Stage 3.1 13:26:35 10° NW 13:30:34 60° WSW 13:34:39 10° SSE
Star 48 S/N 10038-3 4.3 13:27:56 10° WSW 13:30:54 65° WNW 13:30:54 65° WNW
Meteor 1-26 Rocket 4.0 13:26:14 10° S 13:31:48 74° E 13:35:18 23° NNE
COSMOS 2455 3.7 13:30:42 10° SSE 13:35:14 29° ESE 13:35:14 29° ESE
Delta 168 3.5 13:32:15 10° WNW 13:37:03 85° NNE 13:39:33 39° ESE
ATLAS 5 CENTAUR R/B 2.2 13:39:23 10° SSW 13:40:56 24° S 13:40:56 24° S
Ariane H10+ 3.4 13:38:09 10° WSW 13:42:29 20° SSW 13:44:10 16° SSE
Cosmos 1898 Rocket 3.5 13:41:18 10° SSW 13:46:27 79° WNW 13:48:13 42° N
Cosmos 1553 Rocket 3.8 13:42:53 10° S 13:48:57 86° E 13:52:20 28° N
SL-19 R/B 4.3 13:47:38 10° S 13:52:46 69° WSW 13:58:01 10° NNW
Cosmos 2237 4.4 13:47:15 10° S 13:52:09 51° SE 13:52:09 51° SE
YAOGAN 1 3.9 13:50:53 10° SSW 13:54:49 37° W 13:58:46 10° NNW
OAO 1 Rocket 4.3 13:51:11 10° WSW 13:56:29 79° NNW 13:56:35 79° NNW
ASC 2 Rocket 4.3 13:46:54 10° W 13:56:53 71° NNW 13:58:32 55° NE
Intelsat 5-1 Rocket 3.3 13:56:59 10° WNW 13:58:34 31° NW 13:58:34 31° NW
USA 81 4.4 14:09:04 45° NW 14:10:26 60° W 14:15:35 10° S
SL-16 R/B 4.0 14:08:46 10° S 14:10:27 19° SSE 14:10:27 19° SSE
Cosmos 1937 Rocket 4.1 14:10:20 10° SSW 14:15:21 54° W 14:15:21 54° W
Cosmos 2297 Rocket 3.3 14:23:32 10° NW 14:28:46 40° WSW 14:34:00 10° S
Skynet4D Del rocket 4.5 14:29:14 10° WSW 14:34:28 59° W 14:34:28 59° W
Chandra Rocket (1) 4.3 14:04:21 10° WSW 14:39:20 76° SSE 14:40:42 70° ESE
BREEZE-M DEB (TANK) 4.3 14:40:29 10° WSW 14:42:48 38° W 14:42:48 38° W
USA 59 Rocket 3.5 15:10:51 10° SW 15:10:55 10° SW 15:10:55 10° SW
CZ-3 R/B 4.1 20:45:17 10° W 21:35:21 60° N 21:46:57 10° ENE
Chandra Rocket (1) 4.5 22:11:02 25° E 22:11:02 25° E 22:14:35 10° ESE
Cosmos 2034 Rocket 4.2 22:30:32 67° E 22:30:32 67° E 22:36:41 10° SSE
NOSS 3-2 (C) 4.2 22:33:38 64° NNW 22:35:22 89° ENE 22:44:50 10° SSE
SEDSat Delta rocket 4.5 22:38:11 39° E 22:38:11 39° E 22:41:22 10° ESE
ATLAS CENTAUR Rocket 3.1 22:49:01 35° NNE 22:49:01 35° NNE 22:53:11 10° ENE
CZ-3C R/B 1.8 22:55:17 45° ENE 22:55:17 45° ENE 23:00:21 10° ENE
Palapa 6 Rocket 4.1 22:57:30 59° WSW 22:58:48 72° SSW 23:06:27 10° ESE
Meteor 2-12 Rocket 4.3 22:53:50 10° S 22:59:58 85° W 23:06:06 10° N
Atlas Centaur 2 3.0 23:03:10 48° NW 23:05:42 77° NNE 23:13:56 10° ESE
Cosmos 2082 Rocket 2.0 23:01:12 10° SSW 23:06:50 79° WNW 23:12:27 10° NNE
Meteor 1-27 4.0 23:06:20 44° N 23:08:09 84° W 23:13:43 10° S
Centaur D AC-28 3.4 23:08:00 32° NW 23:13:03 56° N 23:17:39 10° E
Cosmos 2228 2.8 23:13:38 68° N 23:14:08 84° E 23:18:17 10° S
OAO 3 Copernicus 4.3 23:16:54 57° NW 23:17:01 57° NNW 23:21:57 10° NE
Centaur AC-119 3.8 23:16:34 19° SW 23:21:02 54° SSE 23:26:36 10° E
Cosmos 1461 4.1 23:24:45 24° SSW 23:24:45 24° SSW 23:26:34 10° S
SL-16 R/B 3.0 23:18:07 10° SSW 23:23:45 36° W 23:24:18 35° W
FengYun 1-2 T 4.2 23:19:19 10° N 23:24:53 63° WNW 23:30:26 10° SSW
Intelsat 5-2 Rocket 4.2 23:24:41 30° W 23:28:44 55° SSW 23:32:41 10° SE
Cosmos 1656 4.4 23:30:49 31° WSW 23:30:52 31° WSW 23:35:42 10° SSW
USA 238 DEB 4.3 23:26:37 11° NNW 23:34:21 73° ENE 23:42:35 10° SSE
USA 238 4.3 23:26:40 11° NNW 23:34:29 72° ENE 23:42:41 10° SSE
Cosmos 220 Rocket 3.7 23:34:40 10° SSW 23:38:40 88° WNW 23:42:42 10° NNE
Cosmos 1544 Rocket 3.5 23:36:02 10° N 23:40:27 88° W 23:44:49 10° S
GPS 2-12 Rocket1 3.0 23:39:22 35° WNW 23:41:10 70° N 23:45:39 10° E
BREEZE-M DEB (TANK) 4.3 23:38:20 18° NW 23:45:07 79° SW 23:50:01 10° SE
Cosmos 1634 Rocket 4.2 23:39:17 10° NNW 23:45:11 48° W 23:51:07 10° SSW
UNK 4.2 23:41:22 10° S 23:45:37 39° W 23:47:55 23° NW
Cosmos 1980 Rocket 3.8 23:42:08 10° N 23:47:08 33° ENE 23:52:06 10° SE
Cosmos 1782 2.5 23:48:01 18° NNW 23:50:29 57° W 23:53:58 10° S
Fermi 3.7 23:52:17 25° W 23:54:18 56° NNW 23:58:09 10° ENE
